Location: Brantley
(31.5822°N, 86.2569°W)
Time: 10:44:45
(UTC+00:00)

SR - All Passes

Search period start: 16 February 2026 00:00
Search period end: 26 February 2026 00:00
Orbit: 574 x 847 km, 66.7° (Epoch: 14 February)

Date Brightness Start Highest point End Pass type
(mag) Time Alt. Az. Time Alt. Az. Time Alt. Az.
16 Feb - 09:34:03 10° S 09:37:52 35° ESE 09:41:46 10° NE visible
16 Feb - 11:17:04 10° W 11:19:37 15° NW 11:22:12 10° NNW visible
16 Feb - 18:19:11 10° NE 18:20:30 11° NE 18:21:50 10° ENE daylight
16 Feb - 19:57:27 10° NNW 20:02:41 89° WSW 20:08:15 10° SSE daylight
17 Feb - 08:41:42 10° SE 08:43:16 12° ESE 08:44:52 10° E night (unlit)
17 Feb - 10:20:29 10° SW 10:24:25 40° WNW 10:28:29 10° N visible
17 Feb - 19:02:52 10° N 19:07:41 38° ENE 19:12:48 10° SE daylight
17 Feb - 20:45:04 10° WNW 20:49:09 23° WSW 20:53:24 10° SSW daylight
18 Feb - 09:25:22 10° SSW 09:29:30 65° ESE 09:33:44 10° NNE visible
18 Feb - 18:09:07 10° NNE 18:12:30 17° NE 18:15:59 10° E daylight
18 Feb - 19:49:17 10° NW 19:54:24 56° WSW 19:59:50 10° S daylight
19 Feb - 08:31:37 10° SSE 08:34:48 21° ESE 08:38:02 10° ENE night (unlit)
19 Feb - 10:12:49 10° WSW 10:16:15 24° WNW 10:19:46 10° N visible
19 Feb - 18:54:20 10° NNW 18:59:30 61° ENE 19:04:59 10° SE daylight
19 Feb - 20:38:03 10° WNW 20:40:45 14° WSW 20:43:30 10° SW daylight
20 Feb - 09:17:01 10° SSW 09:21:11 69° WNW 09:25:28 10° NNE visible
20 Feb - 18:00:04 10° N 18:04:25 26° ENE 18:08:58 10° ESE daylight
20 Feb - 19:41:19 10° NW 19:46:05 35° WSW 19:51:05 10° S daylight
21 Feb - 08:22:30 10° S 08:26:22 37° ESE 08:30:19 10° NE night (unlit)
21 Feb - 10:05:42 10° W 10:08:09 15° NW 10:10:39 10° NNW visible
21 Feb - 17:07:18 10° NNE 17:09:04 12° NE 17:10:52 10° ENE daylight
21 Feb - 18:45:59 10° NNW 18:51:15 85° WSW 18:56:51 10° SSE daylight
22 Feb - 07:29:55 10° SE 07:31:46 13° ESE 07:33:37 10° E night (unlit)
22 Feb - 09:09:01 10° SW 09:12:56 38° WNW 09:16:58 10° N night (unlit)
22 Feb - 17:51:20 10° N 17:56:15 40° ENE 18:01:27 10° SE daylight
22 Feb - 19:33:40 10° WNW 19:37:42 22° WSW 19:41:53 10° SSW daylight
23 Feb - 08:13:50 10° SSW 08:17:59 69° ESE 08:22:16 10° NNE night (unlit)
23 Feb - 16:57:31 10° NNE 17:01:04 18° NE 17:04:44 10° E daylight
23 Feb - 18:37:48 10° NW 18:42:57 53° WSW 18:48:23 10° S daylight
24 Feb - 07:20:01 10° SSE 07:23:16 22° ESE 07:26:37 10° NE night (unlit)
24 Feb - 09:01:23 10° WSW 09:04:45 23° WNW 09:08:14 10° N night (unlit)
24 Feb - 17:42:49 10° NNW 17:48:03 64° ENE 17:53:35 10° SE daylight
24 Feb - 19:26:44 10° WNW 19:29:16 13° WSW 19:31:53 10° SW daylight
25 Feb - 08:05:31 10° SW 08:09:40 65° WNW 08:13:58 10° NNE night (unlit)
25 Feb - 16:48:31 10° N 16:52:58 27° ENE 16:57:38 10° ESE daylight
25 Feb - 18:29:51 10° NW 18:34:37 33° WSW 18:39:36 10° S daylight
